Location: Habighorst
(52.7089°N, 10.2278°E)
Time: 23:56:45
(UTC+00:00)

MOS 1 Rocket - Pass Details

Date: 13 January 2026
Orbit: 608 x 815 km, 97.4° (Epoch: 9 February)

Event Time Altitude Azimuth Distance (km) Brightness Sun altitude
Rises 06:32:59 0° 10° (N) 3,115 6.5 -7.6°
Reaches altitude 10° 06:35:22 10° 5° (N) 2,158 5.6 -7.3°
Maximum altitude 06:39:52 48° 292° (WNW) 869 3.4 -6.7°
Drops below altitude 10° 06:44:08 10° 218° (SW) 2,031 5.6 -6.1°
Sets 06:46:19 0° 212° (SSW) 2,912 6.5 -5.8°
